ASTRA 1N

Last updated on Wed Sep 17 2025 00:02:47 GMT+0000 (Coordinated Universal Time)

1 37775U 11041A 25259.58754537 .00000100 00000+0 00000+0 0 9992 2 37775 0.0655 344.6586 0002129 153.6033 88.2137 1.00271059 41782
UTC large
Height (km)
Speed (km/s)
/
Latitude / Longitude
Inclination (degrees)
Orbital Period (minutes)
Azimuth
Elevation
Range (km)
Doppler Factor

Next 0 passes for location: London (51.5072 / 0.1276)

Sorry there are no passes over London.